Location: Petrozavodsk
(61.7857°N, 34.3593°E)
Time: 23:24:14
(UTC+03:00)

Terra - Pass Details

Date: 27 October 2019
Orbit: 701 x 703 km, 98.2° (Epoch: 18 November)

Event Time Altitude Azimuth Distance (km) Brightness Sun altitude
Exits shadow 19:59:18 18° 32° (NNE) 1,702 3.6 -22.2°
Drops below altitude 10° 20:01:59 10° 358° (N) 2,186 4.5 -22.5°
Sets 20:04:50 0° 341° (NNW) 3,108 5.6 -22.8°
